Weather History for Portland, ME

Change the Weather History Date:

Wednesday, March 26, 2014

  Actual Average Record
Temperature  
Mean Temperature 29 °F 37 °F  
Max Temperature 34 °F 45 °F 74 °F (1945)
Min Temperature 23 °F 28 °F -5 °F (1960)
Degree Days  
Heating Degree Days 36 28  
Month to date heating degree days 1027 840  
Since 1 July heating degree days 6266 5882  
Cooling Degree Days 0 0  
Month to date cooling degree days 0 0  
Year to date cooling degree days 0 0  
Moisture  
Dew Point 10 °F    
Average Humidity 47    
Maximum Humidity 63    
Minimum Humidity 31    
Precipitation  
Precipitation 0.00 in 0.15 in 1.50 in (1876)
Month to date precipitation 1.93 3.53  
Year to date precipitation 10.25 10.16  
Snow  
Snow 0.00 in 0.30 in 3.00 in (1888)
Month to date snowfall 3.3 11.4  
Since 1 July snowfall 81.8 57.8  
Snow Depth 3.00 in    
Sea Level Pressure  
Sea Level Pressure 29.74 in    
Wind  
Wind Speed 22 mph (NNW)    
Max Wind Speed 37 mph    
Max Gust Speed 50 mph    
Visibility 10 miles    
Events      
T = Trace of Precipitation, MM = Missing Value Source: NWS Daily Summary

Daily Weather History Graph

Daily Weather History Graph

Search for Another Location

Airport:

Trip Planner

Search our weather history database for the weather conditions in past years. The results will help you decide how hot, cold, wet, or windy it might be!

Date:

Astronomy

Mar. 26, 2014 Rise Set
Actual Time 6:33 AM EDT 7:00 PM EDT
Civil Twilight 6:04 AM EDT 7:29 PM EDT
Nautical Twilight 5:31 AM EDT 8:03 PM EDT
Astronomical Twilight 4:56 AM EDT 8:38 PM EDT
Moon 3:47 AM EDT 2:28 PM EDT
Length of Visible Light 13h 24m
Length of Day
12h 27m
Waning Crescent, 22% of the Moon is Illuminated
Mar 26
Waning Crescent
Mar 30
New
Apr 7
First Quarter
Apr 15
Full
Apr 22
Last Quarter

Hourly Weather History & Observations

Time (EDT) Temp. Windchill Dew Point Humidity Pressure Visibility Wind Dir Wind Speed Gust Speed Precip Events Conditions
12:51 AM 30.0 °F 23.2 °F 16.0 °F 56% 29.98 in 10.0 mi ENE 6.9 mph - N/A   Clear
1:51 AM 28.9 °F 19.8 °F 16.0 °F 58% 29.90 in 10.0 mi North 10.4 mph - N/A   Partly Cloudy
2:51 AM 28.0 °F 20.8 °F 16.0 °F 61% 29.92 in 10.0 mi NE 6.9 mph - N/A   Scattered Clouds
3:51 AM 28.9 °F 18.6 °F 16.0 °F 58% 29.91 in 10.0 mi NE 12.7 mph - N/A   Overcast
4:51 AM 27.0 °F 18.7 °F 15.1 °F 61% 29.88 in 10.0 mi North 8.1 mph - N/A   Overcast
5:51 AM 26.1 °F 14.5 °F 14.0 °F 60% 29.84 in 10.0 mi North 13.8 mph - N/A   Overcast
6:51 AM 26.1 °F 12.3 °F 12.0 °F 55% 29.80 in 10.0 mi North 19.6 mph 25.3 mph N/A   Overcast
7:51 AM 26.1 °F 12.7 °F 10.0 °F 51% 29.76 in 10.0 mi North 18.4 mph 28.8 mph N/A   Overcast
8:51 AM 26.1 °F 10.7 °F 10.0 °F 51% 29.73 in 10.0 mi North 25.3 mph 34.5 mph N/A   Overcast
9:51 AM 27.0 °F 11.6 °F 8.1 °F 45% 29.71 in 10.0 mi North 26.5 mph 34.5 mph N/A   Overcast
10:51 AM 28.0 °F 13.3 °F 6.1 °F 39% 29.66 in 10.0 mi North 25.3 mph 35.7 mph N/A   Overcast
11:51 AM 30.0 °F 15.4 °F 3.9 °F 33% 29.60 in 10.0 mi NNW 27.6 mph 39.1 mph N/A   Overcast
12:51 PM 32.0 °F 17.6 °F 6.1 °F 34% 29.56 in 10.0 mi NNW 29.9 mph 42.6 mph N/A   Overcast
1:51 PM 33.1 °F 20.1 °F 6.1 °F 32% 29.53 in 10.0 mi NNW 25.3 mph 48.3 mph N/A   Overcast
2:51 PM 34.0 °F 21.3 °F 8.1 °F 34% 29.54 in 10.0 mi NNW 25.3 mph 41.4 mph N/A   Overcast
3:51 PM 34.0 °F 20.1 °F 10.0 °F 37% 29.55 in 10.0 mi NNW 31.1 mph 43.7 mph N/A   Clear
4:51 PM 33.1 °F 18.9 °F 10.0 °F 38% 29.57 in 10.0 mi NNW 31.1 mph 49.5 mph N/A   Overcast
5:51 PM 32.0 °F 17.4 °F 10.0 °F 40% 29.61 in 10.0 mi NNW 31.1 mph 47.2 mph N/A   Overcast
6:51 PM 28.9 °F 14.3 °F 10.9 °F 47% 29.66 in 10.0 mi NW 26.5 mph 36.8 mph N/A   Overcast
7:51 PM 28.0 °F 13.9 °F 10.9 °F 49% 29.71 in 10.0 mi NW 23.0 mph 36.8 mph N/A   Mostly Cloudy
8:51 PM 28.0 °F 13.9 °F 10.0 °F 47% 29.75 in 10.0 mi NW 23.0 mph 35.7 mph N/A   Mostly Cloudy
9:51 PM 27.0 °F 12.5 °F 8.1 °F 45% 29.80 in 10.0 mi NW 23.0 mph 44.9 mph N/A   Mostly Cloudy
10:51 PM 25.0 °F 10.9 °F 9.0 °F 51% 29.84 in 10.0 mi WNW 19.6 mph 29.9 mph N/A   Mostly Cloudy
11:51 PM 23.0 °F 8.0 °F 6.1 °F 48% 29.88 in 10.0 mi WNW 20.7 mph 29.9 mph N/A   Clear